Weather Roundup
Issued by NWS Chicago, IL

Home | Current Version | Previous Version | Graphics & Text | Print | Product List | Glossary On
Versions: 1 2 3 4 5 6 7 8 9 10 11 12 13 14 15 16 17 18 19 20 21 22 23 24 25 26 27 28 29 30 31 32 33 34 35 36 37 38 39 40 41 42 43 44 45 46 47 48 49 50
000
NZUS59 KLOT 300000
HRRLOT

CHICAGO AREA WEATHER ROUNDUP
NATIONAL WEATHER SERVICE CHICAGO/ROMEOVILLE IL
700 PM CDT SAT AUG 29 2015

NOTE: "FAIR" INDICATES FEW OR NO CLOUDS BELOW 12,000 FEET WITH NO
SIGNIFICANT WEATHER AND/OR OBSTRUCTIONS TO VISIBILITY.

* THESE STATIONS ARE NOT UNDER NWS QUALITY CONTROL. THEY ALSO MAY NOT
  REPORT WEATHER SUCH AS PRECIPITATION OR FOG.

ILZ005-006-012>014-019>023-300100-
NORTHEAST ILLINOIS

CITY           SKY/WX    TMP DP  RH WIND       PRES   REMARKS
OHARE          LGT RAIN  68  66  93 N3        30.00S FOG
6HR MIN TEMP:  67; 6HR MAX TEMP:  70; 6HR PCP:  0.08;

MIDWAY         DRIZZLE   72  67  84 N5        30.00R
6HR MIN TEMP:  72; 6HR MAX TEMP:  76; 6HR PCP:  0.05;

AURORA         LGT RAIN  70  68  93 CALM      30.01S FOG
6HR MIN TEMP:  70; 6HR MAX TEMP:  73; 6HR PCP:  0.07;

WAUKEGAN       CLOUDY    64  64 100 N3        30.01S FOG
DUPAGE AIRPORT LGT RAIN  69  66  90 E3        30.00S FOG
6HR MIN TEMP:  67; 6HR MAX TEMP:  71; 6HR PCP:  0.02;

WHEELING       CLOUDY    68  65  90 E3        30.02R FOG
6HR MIN TEMP:  68; 6HR MAX TEMP:  70; 6HR PCP: TRACE;

NORTHERLY IS     N/A     65  63  93 N5          N/A
$$

WIZ051-052-058>065-066-070>072-300100-
SOUTHEAST WISCONSIN

CITY           SKY/WX    TMP DP  RH WIND       PRES   REMARKS
MILWAUKEE      DRZL/FOG  62  61  96 N7        30.03R VSB 1/2
6HR MIN TEMP:  59; 6HR MAX TEMP:  64; 6HR PCP: TRACE;

KENOSHA*       CLOUDY    64  62  93 N5        30.02S FOG
RACINE*        LGT RAIN  61  59  93 N6        30.04S VSB 3/4
WAUKESHA       CLOUDY    61  61 100 N3        30.05S FOG
$$

INZ001>003-010>013-019-020-300100-
NORTHWEST INDIANA

CITY           SKY/WX    TMP DP  RH WIND       PRES   REMARKS
GARY*          CLOUDY    72  66  83 CALM      30.01R
MICHIGAN CITY* NOT AVBL
RENSSELAER*    NOT AVBL
$$

LMZ740>746-300100-
SOUTHERN LAKE MICHIGAN

STATION/POSITION TIME  SKY/WX   TEMP WIND        PRES    VSBY
                                AIR  DIR/SP/G
                 (UTC)          (F)  (DEG/KT/KT) (MB)    (MI)
HARRISON CRIB    2300            67   20/  7/  7   N/A
BURNHAM HARBOR   2300            65   CALM  /  5   N/A
CALUMET HARBOR   NOT AVBL
BURNS HARBOR     2300            73  180/  3/  7 1016.3S
MICHIGAN CITY    2300            71  100/  3/  5   N/A
$$

ABBREVIATIONS USED IN REMARKS
   TC - TEMPERATURE IN CELSIUS
  WCI - WIND CHILL INDEX
   HX - HEAT INDEX
  VSB - VISIBILITY
$$



USA.gov is the U.S. government's official web portal to all federal, state and local government web resources and services.